Temp
16 16 17 16 17 19 18 18 19 18 18 19 18 19 20 20 20 17 16 16 16 16 16 16 17 17 18 19 19 19 20 20 20 19 19 18 19 19 19 19 19 19 19 18
16 17 18 18 18 18 19 18 17 18 20 19 20 19 19 20 19 17 16 16 17 16 15 14 15 17 17 17 18 19 19 19 19 18 18 18 18 18 18 18 18 18 18 18
17 18 18 19 18 18 18 18 17 18 19 20 20 18 20 20 19 18 18 17 16 15 15 13 13 15 16 16 17 18 18 18 18 18 18 18 18 18 17 17 17 17 17 17
17 18 18 17 17 19 18 18 19 18 19 18 19 17 18 19 18 18 16 15 15 14 14 14 13 14 15 16 17 17 17 17 17 18 17 17 16 16 15 16 16 16 16 16
16 17 17 17 18 18 18 19 18 19 18 18 18 17 18 18 18 17 15 15 14 14 14 13 13 15 16 17 17 17 17 17 17 17 17 17 16 15 15 15 16 16 16 15
18 19 19 19 19 18 20 19 17 15 15 16 17 18 18 17 19 17 16 15 14 13 13 13 14 15 16 16 16 16 16 16 16 16 15 15 15 14 14 14 14 14 14 14
16 17 18 19 19 19 18 17 16 17 16 16 17 17 21 20 18 19 16 14 14 13 13 13 13 14 15 15 15 15 15 14 14 15 14 14 13 13 13 12 12 12 12 12
17 16 18 18 19 17 16 18 16 18 16 17 16 17 20 18 16 18 17 14 13 13 12 13 13 14 14 14 14 14 14 13 13 13 13 13 12 12 12 12 11 11 10 10
16 18 18 19 19 19 18 17 17 18 16 16 17 18 19 16 15 15 15 14 13 13 12 12 13 13 13 13 13 13 13 12 12 12 12 11 11 11 10 10 10 9 9 9
17 16 18 19 19 19 18 17 18 15 18 18 17 17 19 19 17 15 14 14 14 13 13 12 12 12 12 12 12 12 12 11 11 11 11 10 9 9 9 9 9 8 8 8
16 17 17 18 18 17 17 17 16 16 15 17 17 17 17 19 16 15 15 15 14 13 12 12 10 11 11 11 11 11 11 11 10 10 9 9 9 8 8 7 7 7 7 6
18 14 15 17 18 17 18 17 16 16 17 14 14 17 16 16 15 15 15 15 14 13 12 11 10 10 10 9 10 10 9 9 9 9 9 8 7 7 7 6 6 6 5 5
17 15 15 17 17 17 18 17 17 15 15 15 16 17 17 14 15 16 15 15 14 12 11 9 8 8 8 9 8 8 8 8 8 8 7 7 6 6 5 5 5 5 4 4
17 15 16 18 17 16 17 17 16 17 15 16 15 18 20 17 18 18 16 16 13 12 11 9 8 7 8 8 8 8 7 7 7 7 6 6 5 5 4 4 4 4 4 3
17 17 17 17 17 17 17 17 15 16 16 17 18 16 19 19 18 18 17 15 13 12 10 8 7 6 7 7 7 7 7 6 6 6 5 4 4 4 3 3 3 3 3 3
15 16 17 17 17 17 18 18 16 16 17 16 17 17 17 18 17 16 15 13 12 11 9 8 7 5 6 6 6 6 5 5 5 5 4 4 3 3 3 3 3 3 2 2
16 15 16 17 16 17 17 15 15 16 16 17 17 18 16 15 14 15 15 13 12 10 8 7 6 6 6 6 5 5 5 5 4 4 3 3 2 2 2 2 2 1 1 1
14 14 14 15 16 16 18 16 17 16 16 16 16 16 16 14 14 13 12 12 11 9 7 6 6 6 6 5 5 5 4 4 3 3 2 2 1 1 1 1 0 0 -0 -0
13 13 13 15 15 16 17 17 15 17 15 15 16 15 14 14 13 13 10 9 9 7 6 6 6 6 5 5 5 4 4 3 2 2 1 1 1 1 1 0 -0 -0 -1 -1
12 12 14 10 13 16 17 17 16 16 14 13 14 14 14 13 12 11 9 7 6 6 7 6 6 5 5 4 4 3 2 2 1 1 1 1 1 0 0 -0 -1 -1 -1 -2
12 12 13 13 13 13 14 15 16 16 14 13 13 13 13 12 11 10 7 7 6 6 6 6 5 4 3 3 3 2 2 1 1 1 1 1 0 -0 -1 -1 -1 -1 -2 -2
12 11 11 11 12 14 14 15 15 12 12 11 12 12 13 12 10 8 7 6 5 5 5 5 4 4 3 3 2 2 1 1 1 0 0 -0 -0 -1 -1 -1 -2 -2 -3 -3
13 12 12 12 12 12 12 13 12 11 11 12 13 12 11 10 9 8 6 5 5 5 4 4 4 3 2 2 2 1 1 0 0 -0 -0 -1 -1 -1 -2 -2 -2 -3 -3 -3
12 11 12 13 12 12 12 11 12 12 13 12 11 11 11 11 10 8 6 5 4 4 4 3 3 2 2 2 1 1 0 -0 -1 -1 -1 -1 -2 -2 -2 -2 -3 -3 -4 -3
10 11 11 11 11 10 11 11 12 11 10 10 9 10 9 8 8 6 5 4 4 4 3 3 2 1 1 1 1 0 0 -0 -1 -1 -2 -2 -2 -3 -3 -3 -3 -3 -3 -3
8 10 10 10 10 10 10 10 10 10 10 9 8 8 6 5 5 4 3 4 4 3 2 2 1 0 0 0 0 0 -0 -1 -2 -2 -3 -3 -3 -3 -3 -4 -4 -4 -3 -3
Height
764 779 781 789 788 785 792 796 798 794 782 784 783 777 764 758 756 763 762 761 761 761 762 759 756 751 749 746 745 744 742 740 741 742 744 746 746 748 750 751 752 752 752 752
774 777 772 779 782 788 791 796 800 789 777 781 774 775 765 758 759 761 761 762 762 762 762 760 757 755 753 752 751 748 746 744 742 743 745 746 747 749 750 750 750 750 750 749
766 768 770 776 782 791 792 798 799 797 785 775 776 778 765 757 757 759 759 760 762 764 765 763 761 758 758 756 755 753 751 749 747 746 746 747 748 749 750 750 750 749 748 748
770 762 769 781 786 783 793 786 788 793 796 801 782 802 774 764 763 763 763 764 764 765 766 764 762 761 760 760 759 758 756 754 753 752 750 750 752 753 755 754 753 751 750 749
764 761 770 776 775 779 787 778 787 789 794 795 791 801 773 765 769 765 766 766 765 764 766 765 763 762 762 763 763 762 760 759 758 756 755 755 755 756 756 755 754 753 751 749
758 755 763 760 768 774 771 782 792 799 804 812 794 793 774 771 753 760 762 765 763 764 766 765 764 764 764 765 765 764 763 763 762 760 760 759 759 759 757 757 755 753 751 748
768 767 760 759 770 771 780 792 813 813 815 809 788 795 759 747 747 744 754 761 762 764 765 766 765 765 766 766 766 767 766 766 766 764 763 763 762 761 760 759 756 753 750 747
764 775 760 755 760 774 783 782 805 808 814 801 790 790 757 745 744 739 745 755 762 764 765 767 766 766 767 768 769 769 769 769 768 767 766 766 765 763 762 760 758 755 753 749
762 762 752 751 752 758 777 784 779 789 797 804 786 768 747 749 748 746 751 757 761 763 766 767 766 768 769 769 771 771 771 771 770 770 769 768 767 764 762 761 759 756 752 748
746 765 753 753 751 756 762 768 787 800 798 797 787 779 763 749 752 753 756 757 760 762 766 767 767 769 770 771 772 773 773 772 772 771 770 769 768 767 764 761 757 753 750 746
740 750 764 757 761 766 769 774 781 785 795 795 797 778 752 745 749 752 752 753 757 762 764 766 768 770 771 773 774 774 773 773 772 772 772 770 769 766 764 760 757 754 750 746
733 756 769 761 755 755 758 766 773 788 787 799 801 779 750 748 745 750 753 755 760 761 763 765 768 771 773 774 775 776 776 775 774 773 772 771 769 766 763 761 757 753 749 746
732 752 772 765 764 759 760 762 765 774 781 791 792 775 749 749 748 750 756 757 758 760 763 767 771 773 774 776 777 777 777 776 776 774 772 769 767 765 763 760 756 752 748 744
727 746 752 755 755 757 762 759 762 764 783 781 781 762 748 751 750 749 752 752 756 759 763 767 771 774 776 777 777 778 778 777 775 773 771 769 767 765 762 760 756 751 747 742
729 741 742 745 745 746 749 752 759 763 763 767 758 766 751 748 751 750 749 752 755 759 765 769 773 775 776 778 779 779 777 777 776 774 772 769 767 765 762 758 754 749 745 741
733 747 741 749 748 746 746 746 755 757 756 760 759 760 749 747 748 750 752 755 757 761 765 770 773 776 777 778 778 778 779 778 777 774 772 770 767 764 761 756 752 747 743 739
735 744 749 750 752 748 755 750 753 753 752 751 758 750 750 755 756 754 753 756 757 761 765 769 773 775 777 779 779 778 778 777 777 776 772 769 767 763 759 755 751 747 742 737
740 746 754 759 755 764 739 739 739 745 748 747 750 752 752 755 755 755 756 755 756 760 765 770 773 775 777 778 778 778 778 777 776 775 772 769 766 762 758 754 750 745 740 735
738 747 761 758 760 749 741 737 744 741 754 750 750 752 755 755 756 756 758 758 757 762 765 769 771 773 775 775 776 777 777 778 777 774 770 767 763 759 755 752 748 743 737 732
743 746 747 778 766 752 738 733 732 735 759 753 751 755 754 758 765 764 759 759 761 763 766 769 771 774 775 776 777 778 776 775 773 770 767 765 762 758 754 750 744 740 736 730
754 757 756 760 761 752 739 735 735 751 757 753 754 756 757 760 760 757 758 761 763 765 767 770 772 775 776 776 775 775 773 772 771 769 765 762 759 756 751 747 743 737 731 726
749 763 761 768 763 754 737 737 744 750 752 754 755 754 751 753 756 759 761 764 766 767 770 772 774 775 775 774 774 771 770 770 769 765 762 760 757 753 748 744 738 733 728 723
744 741 745 750 750 742 739 740 743 746 750 750 749 751 754 756 759 759 761 763 765 767 769 771 773 774 774 772 771 769 769 768 766 763 760 756 753 749 744 739 734 730 725 721
737 741 741 741 744 742 741 743 743 745 747 749 751 752 753 754 755 757 759 762 765 768 770 772 773 772 772 771 771 770 769 766 763 760 756 752 748 743 740 736 732 727 723 717
741 740 742 744 742 747 746 745 745 747 750 751 752 752 754 755 756 758 761 764 766 768 770 771 773 773 772 771 769 768 765 763 759 755 751 747 744 740 736 731 728 724 719 716
742 738 741 742 739 741 746 746 746 749 750 752 753 753 755 757 759 760 762 763 766 768 770 771 772 772 770 768 766 765 763 760 756 752 748 745 742 737 732 726 720 719 715 711
Wind_Speed
8 6 13 12 12 4 4 4 3 5 6 5 9 10 14 6 3 5 6 6 6 6 4 13 19 23 24 25 21 19 18 12 9 17 20 21 26 28 29 29 29 30 29 29
6 20 15 7 4 5 3 2 5 8 4 4 3 9 10 4 4 5 7 6 5 5 6 9 18 23 26 25 25 24 24 23 13 5 10 8 5 8 11 13 16 18 22 24
12 9 11 13 8 6 5 5 4 6 8 3 5 7 6 2 1 3 3 4 5 6 6 6 10 19 23 25 26 27 28 27 25 16 4 3 5 7 13 15 15 14 13 14
8 5 13 10 8 9 9 8 4 6 4 3 3 5 5 4 4 4 5 5 6 7 4 4 8 14 20 22 24 27 29 30 29 27 27 25 22 16 15 16 17 18 18 17
7 9 14 9 6 8 8 6 7 5 4 3 2 2 6 3 7 8 7 7 6 7 6 6 7 13 16 19 22 24 26 27 26 25 24 23 22 19 18 19 18 18 18 19
3 7 11 14 5 9 2 4 5 3 3 2 8 7 5 5 10 5 4 6 8 7 6 5 9 12 15 17 20 22 25 25 24 24 24 23 22 20 21 21 22 22 22 22
2 9 5 6 6 3 5 5 1 2 1 6 1 3 9 5 7 11 12 10 8 7 7 6 6 8 13 16 17 20 21 23 21 22 21 21 20 19 20 19 20 22 24 26
7 6 10 5 7 8 7 7 5 6 4 4 4 6 6 5 6 9 10 9 7 7 6 6 6 9 12 13 16 18 19 20 19 19 19 18 18 18 18 19 20 22 23 25
5 4 3 2 4 9 5 4 5 2 0 1 4 7 4 5 5 7 11 9 9 8 7 7 7 11 12 16 16 15 17 18 18 17 16 17 18 18 19 19 21 23 25 25
7 5 2 2 3 3 6 7 3 2 3 4 4 5 5 2 3 4 9 10 8 6 7 6 6 11 15 15 15 15 15 16 15 15 16 17 18 19 20 22 24 25 26 27
6 4 2 5 4 7 2 2 4 4 4 3 2 6 5 4 8 11 9 9 8 7 7 6 7 14 15 14 13 13 13 13 14 15 16 16 19 21 23 25 26 27 27 28
3 5 4 2 0 2 2 7 6 4 4 2 3 5 4 6 7 7 8 4 4 6 7 6 10 14 13 12 11 11 11 13 14 14 14 16 20 23 25 27 27 28 29 29
6 1 4 3 4 2 4 5 4 4 3 5 5 5 4 6 6 3 5 6 7 7 7 7 8 9 11 10 8 9 11 12 12 13 14 18 22 24 25 26 27 27 28 29
6 3 6 9 6 6 5 5 5 6 4 4 6 4 4 7 6 3 4 6 5 6 7 6 6 7 9 8 7 8 9 12 14 14 16 19 21 22 23 24 25 27 28 29
3 4 3 2 5 4 5 6 9 7 5 6 3 6 3 1 4 4 5 2 7 7 7 7 6 5 7 6 5 8 12 13 13 12 15 18 20 21 23 25 27 28 30 31
2 2 3 1 3 4 1 2 7 4 3 4 3 5 5 2 1 3 3 2 4 6 7 7 6 7 6 5 6 7 9 11 13 14 16 19 21 23 25 27 29 30 32 32
2 5 3 2 3 2 4 8 7 4 4 6 5 3 2 3 4 2 1 4 6 6 7 8 7 7 6 5 5 8 8 10 13 13 16 20 22 25 27 28 29 30 30 30
4 3 3 2 2 2 2 3 4 5 3 3 6 4 3 4 3 1 2 4 7 9 8 7 8 8 6 4 5 6 7 9 12 14 17 20 23 24 26 27 28 29 28 27
5 4 3 4 3 3 2 3 5 5 2 3 4 4 4 2 2 3 2 3 2 5 7 10 9 7 5 3 3 3 6 10 13 16 19 21 22 25 28 28 29 29 29 28
5 5 3 2 3 5 2 1 2 4 1 2 3 3 2 4 2 4 1 2 5 11 13 11 8 6 3 1 2 4 7 11 15 18 19 21 22 24 26 25 28 28 27 26
2 2 4 2 2 5 5 3 1 4 4 2 4 3 2 3 4 3 5 3 7 10 10 9 6 4 2 1 3 4 9 13 17 18 20 21 22 24 24 25 27 29 28 26
6 5 3 3 2 6 0 2 5 4 3 5 4 3 2 2 1 2 3 5 6 8 8 5 4 3 2 2 5 9 13 16 17 19 21 22 24 23 23 24 28 27 26 23
2 5 4 7 4 2 2 4 4 5 5 4 1 3 3 4 4 4 5 6 6 8 7 4 2 2 1 4 8 12 15 17 19 20 23 25 25 24 22 25 27 25 22 21
1 2 3 2 2 3 3 3 3 2 3 2 2 2 3 2 2 4 2 4 5 7 6 3 2 2 5 8 10 11 15 17 19 22 25 26 25 24 26 25 22 21 21 21
3 4 4 1 1 4 2 1 2 3 0 1 1 1 1 2 3 2 2 3 5 6 3 1 2 4 7 10 13 15 17 18 21 23 25 25 25 24 27 23 23 23 23 21
4 6 4 4 5 4 3 4 2 3 3 0 2 3 3 2 2 3 3 4 6 5 3 2 3 6 9 13 16 17 18 18 20 23 21 23 21 23 22 24 27 23 22 26
Wind_Direction
148 178 191 180 203 151 176 178 232 257 249 225 234 254 267 297 293 162 161 138 116 83 35 48 52 53 54 50 50 48 42 31 245 237 239 244 248 255 259 265 274 278 280 281
171 207 200 167 170 148 184 210 269 293 323 187 272 261 267 280 235 198 166 149 133 94 51 35 51 58 57 55 53 52 49 45 42 267 267 269 304 286 289 305 306 300 294 295
212 161 156 186 192 179 221 202 239 229 318 293 330 293 260 236 113 141 147 127 109 106 91 58 52 61 62 59 59 61 60 59 57 59 59 30 34 40 30 25 21 17 9 3
230 178 159 186 202 175 226 198 216 268 309 250 27 282 291 218 186 196 154 140 131 116 94 81 66 63 64 65 67 66 64 62 62 65 68 68 64 62 48 46 48 47 46 38
180 153 174 185 200 162 222 154 202 228 223 357 295 326 263 148 224 213 203 183 146 137 128 100 87 82 76 71 68 68 68 64 61 60 59 60 58 56 52 43 34 26 21 16
159 183 191 188 184 180 105 94 52 63 70 291 225 177 262 200 215 175 180 196 162 150 130 114 97 89 77 71 67 68 68 62 58 59 59 57 53 45 38 29 22 14 10 7
175 180 182 147 134 113 104 108 344 329 313 228 162 157 259 243 228 185 177 183 178 154 150 140 114 89 75 67 73 75 69 61 58 56 55 53 51 44 38 28 19 12 4 359
164 196 158 191 158 167 172 161 164 203 208 257 105 234 250 276 287 174 157 154 154 167 166 141 128 97 78 81 88 80 72 64 57 53 50 44 39 35 30 20 12 6 359 353
142 197 120 144 133 152 184 172 175 77 42 13 233 289 284 358 39 138 141 147 174 183 158 150 136 98 97 99 92 81 69 60 52 47 40 35 29 24 18 10 5 0 356 353
205 100 50 136 113 41 147 164 91 32 245 248 281 281 250 326 191 149 152 172 188 163 153 151 121 118 112 103 93 79 68 59 49 40 31 25 21 14 8 4 3 0 357 354
145 96 208 127 200 162 102 141 64 130 150 201 296 271 224 262 199 187 180 187 183 163 167 152 124 128 118 106 92 78 63 52 42 33 25 20 14 9 7 6 3 1 356 355
171 125 129 182 242 154 149 170 157 141 221 211 160 276 330 296 186 164 195 172 138 173 167 145 140 134 119 101 85 70 55 44 35 23 19 17 11 9 7 3 360 358 356 353
173 45 98 52 6 3 195 192 152 117 99 195 151 266 333 27 102 117 140 170 191 169 148 132 129 125 118 110 89 66 47 37 26 18 20 16 12 8 3 360 358 357 355 352
98 135 159 190 196 147 180 182 174 151 152 177 220 280 346 48 79 136 205 218 175 163 155 137 126 134 126 105 77 56 40 28 20 18 17 14 7 2 359 357 356 355 354 351
130 126 121 92 134 141 184 182 177 185 175 179 228 197 268 206 240 249 264 201 174 169 147 150 150 137 113 108 78 45 31 19 12 15 11 7 1 359 357 356 355 353 352 350
17 128 120 80 49 76 174 197 177 197 211 246 214 266 240 16 352 18 327 253 203 149 152 150 138 130 141 90 54 39 29 20 8 7 4 0 358 356 355 354 352 350 348 347
95 129 112 204 41 45 307 218 189 181 196 157 195 195 39 64 87 63 26 205 204 181 160 155 149 145 115 86 46 35 23 10 2 354 357 358 355 353 352 349 347 345 341 339
114 88 71 150 68 197 207 317 162 136 76 120 91 102 132 162 180 233 278 224 206 171 152 135 142 134 124 83 42 23 11 1 354 351 355 354 351 347 345 344 343 340 337 334
45 118 115 157 197 295 38 184 143 163 62 30 106 103 90 90 47 319 344 339 172 130 125 143 140 130 120 59 19 6 358 352 351 352 349 348 346 343 343 340 338 337 332 329
43 66 105 90 144 218 181 190 82 94 204 353 119 87 62 130 27 248 191 113 102 122 138 140 137 129 120 113 18 339 4 354 349 343 340 340 341 339 335 334 333 329 326 318
97 35 151 147 216 286 246 241 51 123 200 129 109 129 155 152 199 277 148 115 133 139 138 138 141 136 149 89 348 350 358 351 340 334 334 336 336 334 333 328 330 327 321 315
163 142 176 99 116 263 176 72 166 160 125 149 174 177 64 25 340 228 175 137 140 126 126 130 149 164 127 354 341 358 352 339 332 332 331 331 333 333 328 325 327 324 320 318
199 180 175 180 217 253 330 127 126 145 149 191 138 185 187 200 233 210 204 170 162 159 152 164 193 180 264 356 357 348 337 332 328 328 330 331 331 331 329 326 323 317 316 314
218 163 150 121 185 148 110 63 79 110 154 207 223 196 154 204 290 268 164 158 150 159 178 197 226 331 343 344 341 331 326 331 329 328 329 331 331 328 323 320 314 312 311 312
203 145 158 286 176 69 349 292 191 208 113 355 19 23 339 15 7 32 133 148 158 168 173 195 319 328 326 324 323 332 335 333 327 327 329 330 328 322 316 315 315 315 313 309
188 178 168 213 186 137 168 187 197 185 204 349 317 323 62 46 117 129 145 158 160 165 175 254 300 314 320 324 326 329 332 331 328 326 325 322 313 314 314 314 314 314 311 312